Regional Weather Roundup
Issued by NWS Cleveland, OH

Home | Current Version | Previous Version | Text Only | Print | Product List | Glossary Off
Versions: 1 2 3 4 5 6 7 8 9 10 11 12 13 14 15 16 17 18 19 20 21 22 23 24 25 26 27 28 29 30 31 32 33 34 35 36 37 38 39 40 41 42 43 44 45 46 47 48 49 50

000
ASUS41 KCLE 270702
RWRCLE
OHIO REGIONAL WEATHER ROUNDUP
NATIONAL WEATHER SERVICE CLEVELAND, OH
300 AM EDT WED JUL 27 2016

NOTE: "FAIR" INDICATES FEW OR NO CLOUDS BELOW 12,000 FEET WITH NO
SIGNIFICANT WEATHER AND/OR OBSTRUCTIONS TO VISIBILITY.

OHZ001>008-015>018-024>027-034-035-043-044-270800-
   NORTHWEST OHIO

CITY           SKY/WX    TMP DP  RH WIND       PRES   REMARKS
DEFIANCE       CLEAR     67  63  87 CALM      30.00F
FINDLAY        CLEAR     68  60  75 CALM      30.00S
TOLEDO EXPRESS CLEAR     64  64 100 CALM      30.00S
TOLEDO EXEC    PTCLDY    69  62  78 CALM      30.00F
LIMA           PTCLDY    67  63  87 SE3       30.01F
$$

OHZ009>014-019>023-028>033-038-089-270800-
   NORTHEAST OHIO

CITY           SKY/WX    TMP DP  RH WIND       PRES   REMARKS
CLE-HOPKINS    PTCLDY    67  56  67 S3        30.02F
CLE-LAKEFRONT  CLEAR     72  56  57 S7        29.99F
CUY CO. ARPT   NOT AVBL
LORAIN-ELYRIA  CLEAR     63  58  83 CALM      30.02S
ASHTABULA      CLEAR     59  58  96 CALM      30.03S
AKRON-CANTON   MOCLDY    68  59  73 CALM      30.03F
WOOSTER        CLOUDY    66  61  84 CALM      30.03S
MANSFIELD      PTCLDY    71  56  58 SE5       30.02F
YOUNGSTOWN     PTCLDY    61  59  93 CALM      30.03S
$$

OHZ042-051>053-060>062-070>072-077>081-270800-
  SOUTHWEST OHIO

CITY           SKY/WX    TMP DP  RH WIND       PRES   REMARKS
CINC-COVINGTON CLOUDY    75  74  96 CALM      30.00F
CINC-LUNKEN    CLOUDY    75  75 100 CALM      29.99F FOG
HAMILTON       CLOUDY    72  70  93 CALM      30.01S
DAYTON         CLOUDY    72  68  87 CALM      30.02F
WRIGHT-PAT AFB MOCLDY    74  71  89 NW2       30.00F
DAYTON GENERAL CLOUDY    74  69  85 CALM      30.01S
WILMINGTON     FOG       72  72 100 CALM      30.01S VSB 1/2
$$

OHZ036-037-039>041-045>050-054>059-063>069-073>076-082>088-270800-
  CENTRAL AND SOUTHEAST OHIO

CITY           SKY/WX    TMP DP  RH WIND       PRES   REMARKS
COLUMBUS       CLOUDY    75  66  73 E5        29.99F
OSU AIRPORT    CLOUDY    74  65  73 E5        30.00F
BOLTON FIELD   MOCLDY    72  71  98 CALM      30.01S
RICKENBACK AFB CLOUDY    72  72  99 SE3       30.00F FOG
NEWARK         CLOUDY    75  61  61 CALM      30.00F
MARION         PTCLDY    70  61  73 S5        30.02S
LANCASTER      MOCLDY    72  71  97 SW3       30.01F
ZANESVILLE     MOCLDY    75  71  87 CALM      30.01F
NEW PHILLY     CLOUDY    75  61  61 CALM      30.02F
$$




USA.gov is the U.S. government's official web portal to all federal, state and local government web resources and services.